Time,TemperatureF,DewpointF,PressureIn,WindDirection,WindDirectionDegrees,WindSpeedMPH,WindSpeedGustMPH,Humidity,HourlyPrecipIn,Conditions,Clouds,dailyrainin,SoftwareType,DateUTC
2013-01-29 00:01:00,45.0,41.0,30.29,NE,45,0.0,2.0,85,-99.99,,,-99.99,,2013-01-29 08:01:00,
2013-01-29 00:11:00,45.0,41.0,30.29,NE,45,0.0,2.0,85,-99.99,,,-99.99,,2013-01-29 08:11:00,
2013-01-29 00:21:00,45.0,41.0,30.29,East,82,0.0,5.0,86,-99.99,,,-99.99,,2013-01-29 08:21:00,
2013-01-29 00:31:00,45.0,41.0,30.29,East,82,0.0,1.0,85,-99.99,,,-99.99,,2013-01-29 08:31:00,
2013-01-29 00:41:00,45.0,41.0,30.29,East,82,0.0,1.0,85,-99.99,,,-99.99,,2013-01-29 08:41:00,
2013-01-29 00:52:00,44.0,40.0,30.29,East,82,0.0,1.0,86,-99.99,,,-99.99,,2013-01-29 08:52:00,
2013-01-29 01:01:00,44.0,40.0,30.29,East,82,0.0,1.0,86,-99.99,,,-99.99,,2013-01-29 09:01:00,
2013-01-29 01:11:00,44.0,40.0,30.29,East,82,0.0,1.0,86,-99.99,,,-99.99,,2013-01-29 09:11:00,
2013-01-29 01:21:00,44.0,40.0,30.29,East,82,0.0,1.0,86,-99.99,,,-99.99,,2013-01-29 09:21:00,
2013-01-29 01:31:00,43.0,39.0,30.29,East,82,0.0,1.0,86,-99.99,,,-99.99,,2013-01-29 09:31:00,
2013-01-29 01:42:00,43.0,39.0,30.29,East,82,0.0,1.0,86,-99.99,,,-99.99,,2013-01-29 09:42:00,
2013-01-29 01:51:00,43.0,39.0,30.29,NE,34,0.0,2.0,87,-99.99,,,-99.99,,2013-01-29 09:51:00,
2013-01-29 02:01:00,43.0,39.0,30.29,NE,34,0.0,1.0,87,-99.99,,,-99.99,,2013-01-29 10:01:00,
2013-01-29 02:11:00,43.0,39.0,30.29,NE,34,0.0,1.0,87,-99.99,,,-99.99,,2013-01-29 10:11:00,
2013-01-29 02:21:00,43.0,39.0,30.29,NE,34,0.0,1.0,87,-99.99,,,-99.99,,2013-01-29 10:21:00,
2013-01-29 02:32:00,44.0,40.0,30.30,NE,34,0.0,2.0,87,-99.99,,,-99.99,,2013-01-29 10:32:00,
2013-01-29 02:41:00,44.0,40.0,30.30,NE,34,0.0,2.0,87,-99.99,,,-99.99,,2013-01-29 10:41:00,
2013-01-29 02:52:00,44.0,40.0,30.30,NE,34,0.0,1.0,87,-99.99,,,-99.99,,2013-01-29 10:52:00,
2013-01-29 03:01:00,44.0,40.0,30.30,NE,34,0.0,1.0,87,-99.99,,,-99.99,,2013-01-29 11:01:00,
2013-01-29 03:11:00,44.0,40.0,30.30,NE,34,0.0,1.0,87,-99.99,,,-99.99,,2013-01-29 11:11:00,
2013-01-29 03:21:00,42.0,38.0,30.31,NNE,28,0.0,2.0,86,-99.99,,,-99.99,,2013-01-29 11:21:00,
2013-01-29 03:32:00,42.0,38.0,30.31,NNE,28,1.0,1.0,87,-99.99,,,-99.99,,2013-01-29 11:32:00,
2013-01-29 03:42:00,42.0,38.0,30.31,NNE,28,1.0,1.0,87,-99.99,,,-99.99,,2013-01-29 11:42:00,
2013-01-29 03:52:00,41.0,38.0,30.31,NNE,27,0.0,3.0,88,-99.99,,,-99.99,,2013-01-29 11:52:00,
2013-01-29 04:02:00,41.0,38.0,30.31,NNE,27,0.0,1.0,89,-99.99,,,-99.99,,2013-01-29 12:02:00,
2013-01-29 04:12:00,41.0,38.0,30.31,NNE,27,0.0,1.0,89,-99.99,,,-99.99,,2013-01-29 12:12:00,
2013-01-29 04:21:00,41.0,38.0,30.30,NNE,27,0.0,2.0,89,-99.99,,,-99.99,,2013-01-29 12:21:00,
2013-01-29 04:32:00,41.0,38.0,30.30,NNE,27,0.0,3.0,89,-99.99,,,-99.99,,2013-01-29 12:32:00,
2013-01-29 04:42:00,41.0,38.0,30.30,NNE,27,0.0,3.0,89,-99.99,,,-99.99,,2013-01-29 12:42:00,
2013-01-29 04:52:00,41.0,38.0,30.30,NNE,27,0.0,3.0,89,-99.99,,,-99.99,,2013-01-29 12:52:00,
2013-01-29 05:01:00,40.0,37.0,30.30,NE,40,0.0,1.0,90,-99.99,,,-99.99,,2013-01-29 13:01:00,
2013-01-29 05:11:00,40.0,37.0,30.30,NE,40,0.0,1.0,90,-99.99,,,-99.99,,2013-01-29 13:11:00,
2013-01-29 05:22:00,40.0,37.0,30.30,NE,40,0.0,0.0,90,-99.99,,,-99.99,,2013-01-29 13:22:00,
2013-01-29 05:31:00,40.0,38.0,30.31,NNE,20,2.0,3.0,91,-99.99,,,-99.99,,2013-01-29 13:31:00,
2013-01-29 05:42:00,40.0,38.0,30.31,NNE,20,2.0,3.0,91,-99.99,,,-99.99,,2013-01-29 13:42:00,
2013-01-29 05:52:00,41.0,39.0,30.31,NNE,18,0.0,2.0,92,-99.99,,,-99.99,,2013-01-29 13:52:00,
2013-01-29 06:01:00,40.0,38.0,30.31,NE,38,0.0,2.0,91,-99.99,,,-99.99,,2013-01-29 14:01:00,
2013-01-29 06:11:00,40.0,38.0,30.30,NNE,18,0.0,3.0,92,-99.99,,,-99.99,,2013-01-29 14:11:00,
2013-01-29 06:21:00,40.0,38.0,30.30,NNE,18,0.0,3.0,92,-99.99,,,-99.99,,2013-01-29 14:21:00,
2013-01-29 06:32:00,41.0,39.0,30.32,North,0,0.0,1.0,92,-99.99,,,-99.99,,2013-01-29 14:32:00,
2013-01-29 06:42:00,41.0,39.0,30.32,North,0,0.0,1.0,92,-99.99,,,-99.99,,2013-01-29 14:42:00,
2013-01-29 06:52:00,41.0,39.0,30.32,North,0,1.0,1.0,92,-99.99,,,-99.99,,2013-01-29 14:52:00,
2013-01-29 07:02:00,40.0,38.0,30.32,WSW,254,0.0,1.0,92,-99.99,,,-99.99,,2013-01-29 15:02:00,
2013-01-29 07:11:00,40.0,38.0,30.32,WSW,254,0.0,1.0,92,-99.99,,,-99.99,,2013-01-29 15:11:00,
2013-01-29 07:21:00,40.0,38.0,30.33,NW,311,0.0,2.0,93,-99.99,,,-99.99,,2013-01-29 15:21:00,
2013-01-29 07:32:00,41.0,39.0,30.33,North,359,0.0,1.0,93,-99.99,,,-99.99,,2013-01-29 15:32:00,
2013-01-29 07:42:00,41.0,39.0,30.33,North,359,0.0,1.0,93,-99.99,,,-99.99,,2013-01-29 15:42:00,
2013-01-29 07:52:00,41.0,39.0,30.33,North,359,0.0,1.0,93,-99.99,,,-99.99,,2013-01-29 15:52:00,
2013-01-29 08:02:00,40.0,38.0,30.34,North,359,0.0,2.0,93,-99.99,,,-99.99,,2013-01-29 16:02:00,
2013-01-29 08:12:00,40.0,38.0,30.34,North,359,0.0,2.0,93,-99.99,,,-99.99,,2013-01-29 16:12:00,
2013-01-29 08:22:00,41.0,39.0,30.35,North,359,0.0,1.0,93,-99.99,,,-99.99,,2013-01-29 16:22:00,
2013-01-29 08:32:00,41.0,39.0,30.35,North,359,0.0,1.0,93,-99.99,,,-99.99,,2013-01-29 16:32:00,
2013-01-29 08:42:00,41.0,39.0,30.35,North,359,0.0,1.0,93,-99.99,,,-99.99,,2013-01-29 16:42:00,
2013-01-29 08:52:00,41.0,39.0,30.35,North,359,1.0,1.0,93,-99.99,,,-99.99,,2013-01-29 16:52:00,
2013-01-29 09:02:00,42.0,40.0,30.35,North,359,0.0,1.0,94,-99.99,,,-99.99,,2013-01-29 17:02:00,
2013-01-29 09:11:00,42.0,40.0,30.35,North,359,0.0,1.0,94,-99.99,,,-99.99,,2013-01-29 17:11:00,
2013-01-29 09:21:00,42.0,40.0,30.35,North,359,0.0,1.0,94,-99.99,,,-99.99,,2013-01-29 17:21:00,
2013-01-29 09:32:00,43.0,41.0,30.35,North,359,0.0,0.0,94,-99.99,,,-99.99,,2013-01-29 17:32:00,
2013-01-29 09:41:00,43.0,41.0,30.35,North,359,0.0,0.0,94,-99.99,,,-99.99,,2013-01-29 17:41:00,
2013-01-29 09:52:00,44.0,42.0,30.34,North,359,0.0,1.0,94,-99.99,,,-99.99,,2013-01-29 17:52:00,
2013-01-29 10:03:00,45.0,43.0,30.34,North,359,0.0,2.0,93,-99.99,,,-99.99,,2013-01-29 18:03:00,
2013-01-29 10:12:00,45.0,43.0,30.34,North,359,0.0,2.0,93,-99.99,,,-99.99,,2013-01-29 18:12:00,
2013-01-29 10:21:00,45.0,43.0,30.35,East,97,0.0,3.0,92,-99.99,,,-99.99,,2013-01-29 18:21:00,
2013-01-29 10:33:00,47.0,44.0,30.35,East,96,1.0,3.0,88,-99.99,,,-99.99,,2013-01-29 18:33:00,
2013-01-29 10:41:00,47.0,44.0,30.35,East,96,1.0,3.0,88,-99.99,,,-99.99,,2013-01-29 18:41:00,
2013-01-29 10:51:00,48.0,43.0,30.35,East,96,0.0,1.0,83,-99.99,,,-99.99,,2013-01-29 18:51:00,
2013-01-29 11:02:00,49.0,43.0,30.35,SW,220,0.0,3.0,81,-99.99,,,-99.99,,2013-01-29 19:02:00,
2013-01-29 11:11:00,49.0,43.0,30.35,SW,220,0.0,3.0,81,-99.99,,,-99.99,,2013-01-29 19:11:00,
2013-01-29 11:22:00,49.0,43.0,30.35,SW,220,0.0,3.0,81,-99.99,,,-99.99,,2013-01-29 19:22:00,
2013-01-29 11:32:00,51.0,43.0,30.34,NW,312,0.0,4.0,74,-99.99,,,-99.99,,2013-01-29 19:32:00,
2013-01-29 11:42:00,51.0,43.0,30.34,NW,312,0.0,4.0,74,-99.99,,,-99.99,,2013-01-29 19:42:00,
2013-01-29 11:52:00,51.0,43.0,30.34,NW,312,0.0,4.0,74,-99.99,,,-99.99,,2013-01-29 19:52:00,
2013-01-29 12:02:00,51.0,43.0,30.33,SE,140,1.0,3.0,74,-99.99,,,-99.99,,2013-01-29 20:02:00,
2013-01-29 12:11:00,51.0,43.0,30.33,SE,140,1.0,3.0,74,-99.99,,,-99.99,,2013-01-29 20:11:00,
2013-01-29 12:22:00,52.0,43.0,30.32,SW,215,3.0,7.0,72,-99.99,,,-99.99,,2013-01-29 20:22:00,
2013-01-29 12:32:00,52.0,43.0,30.32,SW,233,6.0,7.0,71,-99.99,,,-99.99,,2013-01-29 20:32:00,
2013-01-29 12:42:00,52.0,43.0,30.32,SW,233,6.0,7.0,71,-99.99,,,-99.99,,2013-01-29 20:42:00,
2013-01-29 12:52:00,53.0,44.0,30.30,SW,230,4.0,7.0,71,-99.99,,,-99.99,,2013-01-29 20:52:00,
2013-01-29 13:02:00,53.0,43.0,30.30,SSE,168,1.0,10.0,68,-99.99,,,-99.99,,2013-01-29 21:02:00,
2013-01-29 13:11:00,53.0,43.0,30.30,SSE,168,1.0,10.0,68,-99.99,,,-99.99,,2013-01-29 21:11:00,
2013-01-29 13:21:00,53.0,43.0,30.29,South,179,1.0,7.0,70,-99.99,,,-99.99,,2013-01-29 21:21:00,
2013-01-29 13:32:00,53.0,43.0,30.29,SW,234,5.0,6.0,69,-99.99,,,-99.99,,2013-01-29 21:32:00,
2013-01-29 13:41:00,53.0,43.0,30.29,SW,234,5.0,6.0,69,-99.99,,,-99.99,,2013-01-29 21:41:00,
2013-01-29 13:52:00,54.0,43.0,30.28,ESE,113,2.0,5.0,67,-99.99,,,-99.99,,2013-01-29 21:52:00,
2013-01-29 14:01:00,54.0,43.0,30.27,SW,219,4.0,8.0,67,-99.99,,,-99.99,,2013-01-29 22:01:00,
2013-01-29 14:12:00,54.0,43.0,30.27,SW,219,4.0,8.0,67,-99.99,,,-99.99,,2013-01-29 22:12:00,
2013-01-29 14:21:00,54.0,44.0,30.27,South,189,2.0,7.0,68,-99.99,,,-99.99,,2013-01-29 22:21:00,
2013-01-29 14:32:00,54.0,43.0,30.26,South,186,0.0,5.0,66,-99.99,,,-99.99,,2013-01-29 22:32:00,
2013-01-29 14:42:00,54.0,43.0,30.26,South,186,0.0,5.0,66,-99.99,,,-99.99,,2013-01-29 22:42:00,
2013-01-29 14:52:00,55.0,44.0,30.26,SSW,198,2.0,8.0,66,-99.99,,,-99.99,,2013-01-29 22:52:00,
2013-01-29 15:02:00,55.0,43.0,30.25,SW,224,3.0,8.0,65,-99.99,,,-99.99,,2013-01-29 23:02:00,
2013-01-29 15:11:00,55.0,43.0,30.25,SW,224,3.0,8.0,65,-99.99,,,-99.99,,2013-01-29 23:11:00,
2013-01-29 15:22:00,55.0,44.0,30.27,SSW,193,2.0,8.0,66,-99.99,,,-99.99,,2013-01-29 23:22:00,
2013-01-29 15:32:00,55.0,44.0,30.27,SSW,193,2.0,8.0,66,-99.99,,,-99.99,,2013-01-29 23:32:00,
2013-01-29 15:41:00,55.0,44.0,30.27,SSW,193,2.0,8.0,66,-99.99,,,-99.99,,2013-01-29 23:41:00,
2013-01-29 15:52:00,54.0,44.0,30.27,SSE,164,2.0,8.0,69,-99.99,,,-99.99,,2013-01-29 23:52:00,
2013-01-29 16:02:00,55.0,45.0,30.27,South,179,2.0,7.0,69,-99.99,,,-99.99,,2013-01-30 00:02:00,
2013-01-29 16:11:00,55.0,45.0,30.27,South,179,2.0,7.0,69,-99.99,,,-99.99,,2013-01-30 00:11:00,
2013-01-29 16:21:00,54.0,44.0,30.27,South,181,0.0,4.0,69,-99.99,,,-99.99,,2013-01-30 00:21:00,
2013-01-29 16:32:00,55.0,45.0,30.27,South,188,1.0,5.0,68,-99.99,,,-99.99,,2013-01-30 00:32:00,
2013-01-29 16:42:00,55.0,45.0,30.27,South,188,1.0,5.0,68,-99.99,,,-99.99,,2013-01-30 00:42:00,
2013-01-29 16:52:00,55.0,45.0,30.27,South,179,2.0,5.0,70,-99.99,,,-99.99,,2013-01-30 00:52:00,
2013-01-29 17:01:00,54.0,45.0,30.27,SSW,196,3.0,6.0,71,-99.99,,,-99.99,,2013-01-30 01:01:00,
2013-01-29 17:11:00,54.0,45.0,30.27,SSW,196,3.0,6.0,71,-99.99,,,-99.99,,2013-01-30 01:11:00,
2013-01-29 17:22:00,54.0,45.0,30.27,South,179,0.0,3.0,72,-99.99,,,-99.99,,2013-01-30 01:22:00,
2013-01-29 17:32:00,53.0,45.0,30.27,South,191,0.0,5.0,74,-99.99,,,-99.99,,2013-01-30 01:32:00,
2013-01-29 17:42:00,53.0,45.0,30.27,South,191,0.0,5.0,74,-99.99,,,-99.99,,2013-01-30 01:42:00,
2013-01-29 17:51:00,53.0,45.0,30.27,South,191,0.0,5.0,74,-99.99,,,-99.99,,2013-01-30 01:51:00,
2013-01-29 18:01:00,53.0,45.0,30.27,SSE,165,1.0,2.0,75,-99.99,,,-99.99,,2013-01-30 02:01:00,
2013-01-29 18:11:00,52.0,44.0,30.27,East,92,0.0,2.0,75,-99.99,,,-99.99,,2013-01-30 02:11:00,
2013-01-29 18:21:00,52.0,44.0,30.27,East,92,0.0,2.0,75,-99.99,,,-99.99,,2013-01-30 02:21:00,
2013-01-29 18:33:00,52.0,45.0,30.28,East,92,0.0,1.0,77,-99.99,,,-99.99,,2013-01-30 02:33:00,
2013-01-29 18:41:00,52.0,45.0,30.28,East,92,0.0,1.0,77,-99.99,,,-99.99,,2013-01-30 02:41:00,
2013-01-29 18:52:00,51.0,44.0,30.28,East,88,0.0,2.0,77,-99.99,,,-99.99,,2013-01-30 02:52:00,
2013-01-29 19:02:00,50.0,44.0,30.28,East,82,0.0,2.0,79,-99.99,,,-99.99,,2013-01-30 03:02:00,
2013-01-29 19:11:00,50.0,44.0,30.28,East,82,0.0,2.0,79,-99.99,,,-99.99,,2013-01-30 03:11:00,
2013-01-29 19:21:00,50.0,44.0,30.28,East,82,0.0,2.0,79,-99.99,,,-99.99,,2013-01-30 03:21:00,
2013-01-29 19:31:00,50.0,44.0,30.29,East,82,0.0,1.0,80,-99.99,,,-99.99,,2013-01-30 03:31:00,
2013-01-29 19:41:00,50.0,44.0,30.29,East,82,0.0,1.0,80,-99.99,,,-99.99,,2013-01-30 03:41:00,
2013-01-29 19:52:00,50.0,44.0,30.29,East,82,0.0,1.0,81,-99.99,,,-99.99,,2013-01-30 03:52:00,
2013-01-29 20:01:00,49.0,44.0,30.29,East,82,0.0,2.0,82,-99.99,,,-99.99,,2013-01-30 04:01:00,
2013-01-29 20:11:00,49.0,44.0,30.29,East,82,0.0,2.0,82,-99.99,,,-99.99,,2013-01-30 04:11:00,
2013-01-29 20:21:00,49.0,44.0,30.29,East,82,0.0,2.0,82,-99.99,,,-99.99,,2013-01-30 04:21:00,
2013-01-29 20:31:00,49.0,44.0,30.29,East,82,0.0,2.0,82,-99.99,,,-99.99,,2013-01-30 04:31:00,
2013-01-29 20:41:00,49.0,44.0,30.29,East,82,0.0,2.0,82,-99.99,,,-99.99,,2013-01-30 04:41:00,
2013-01-29 20:52:00,47.0,42.0,30.29,East,80,0.0,2.0,84,-99.99,,,-99.99,,2013-01-30 04:52:00,
2013-01-29 21:03:00,47.0,43.0,30.30,NE,49,1.0,3.0,85,-99.99,,,-99.99,,2013-01-30 05:03:00,
2013-01-29 21:11:00,47.0,43.0,30.30,NE,49,1.0,3.0,85,-99.99,,,-99.99,,2013-01-30 05:11:00,
2013-01-29 21:22:00,47.0,43.0,30.30,NE,49,1.0,3.0,85,-99.99,,,-99.99,,2013-01-30 05:22:00,
2013-01-29 21:32:00,47.0,43.0,30.30,NE,45,0.0,2.0,86,-99.99,,,-99.99,,2013-01-30 05:32:00,
2013-01-29 21:42:00,47.0,43.0,30.30,NE,45,0.0,2.0,86,-99.99,,,-99.99,,2013-01-30 05:42:00,
2013-01-29 21:52:00,47.0,43.0,30.30,NE,45,0.0,2.0,86,-99.99,,,-99.99,,2013-01-30 05:52:00,
2013-01-29 22:02:00,47.0,43.0,30.30,NE,45,0.0,2.0,86,-99.99,,,-99.99,,2013-01-30 06:02:00,
2013-01-29 22:11:00,47.0,43.0,30.30,NE,45,0.0,2.0,86,-99.99,,,-99.99,,2013-01-30 06:11:00,
2013-01-29 22:21:00,46.0,42.0,30.29,North,352,0.0,1.0,85,-99.99,,,-99.99,,2013-01-30 06:21:00,
2013-01-29 22:31:00,47.0,43.0,30.29,North,10,2.0,5.0,85,-99.99,,,-99.99,,2013-01-30 06:31:00,
2013-01-29 22:41:00,47.0,43.0,30.29,North,10,2.0,5.0,85,-99.99,,,-99.99,,2013-01-30 06:41:00,
2013-01-29 22:51:00,47.0,43.0,30.29,North,10,2.0,5.0,85,-99.99,,,-99.99,,2013-01-30 06:51:00,
2013-01-29 23:01:00,48.0,43.0,30.29,North,11,2.0,3.0,84,-99.99,,,-99.99,,2013-01-30 07:01:00,
2013-01-29 23:11:00,48.0,43.0,30.29,North,11,2.0,3.0,84,-99.99,,,-99.99,,2013-01-30 07:11:00,
2013-01-29 23:21:00,48.0,43.0,30.29,North,11,1.0,2.0,84,-99.99,,,-99.99,,2013-01-30 07:21:00,
2013-01-29 23:31:00,48.0,43.0,30.29,NE,54,4.0,5.0,84,-99.99,,,-99.99,,2013-01-30 07:31:00,
2013-01-29 23:41:00,48.0,43.0,30.29,NE,54,4.0,5.0,84,-99.99,,,-99.99,,2013-01-30 07:41:00,
2013-01-29 23:52:00,48.0,43.0,30.28,NE,52,5.0,8.0,84,-99.99,,,-99.99,,2013-01-30 07:52:00,